Hourly Data Report for July 08, 2016

OTTAWA INTL A
ONTARIO

45°19'00.000" N
75°40'00.000" W
114.90 m
6106001
71628
YOW

Download Data

Hourly Data (July 2016)
Hourly Data Report for July 8, 2016
TIME
LST
Temp Definition
°C
Dew Point Definition
°C
Rel Hum Definition
%
Precip. Amount Definition
mm

Wind Dir Definition
10's deg

Wind Spd Definition
km/h
Visibility Definition
km
Stn Press Definition
kPa
Hmdx Definition


Wind Chill Definition


Weather Definition


00:00 19.2 17.9 92   5 8 24.1 99.69     LegendNANA
01:00 18.5 17.9 96   6 9 24.1 99.69     Mainly Clear
02:00 18.4 17.6 95   7 10 24.1 99.68     LegendNANA
03:00 17.9 17.1 95   8 12 22.5 99.69     LegendNANA
04:00 17.6 16.8 95   8 16 12.9 99.69     Cloudy
05:00 17.8 16.5 92   8 19 9.7 99.77     Fog
06:00 18.0 16.5 91   8 16 16.1 99.81     LegendNANA
07:00 18.0 16.2 89   8 16 24.1 99.82     Cloudy
08:00 19.0 15.3 79   10 15 24.1 99.85     LegendNANA
09:00 18.3 15.0 81   8 15 24.1 99.86     LegendNANA
10:00 18.3 15.6 84   7 16 24.1 99.86     Rain Showers
11:00 19.1 15.8 81   7 17 24.1 99.83     LegendNANA
12:00 20.4 16.5 78   6 22 24.1 99.81 25   LegendNANA
13:00 20.4 16.7 79   8 14 24.1 99.79 25   Rain Showers
14:00 20.4 16.5 78   7 19 24.1 99.76 25   Rain Showers
15:00 21.6 16.4 72   9 14 24.1 99.76 26   LegendNANA
16:00 21.5 16.8 74   6 19 24.1 99.69 27   Mostly Cloudy
17:00 21.5 16.5 73   6 16 24.1 99.66 26   LegendNANA
18:00 21.0 16.5 75   5 16 24.1 99.65 26   LegendNANA
19:00 20.3 16.4 78   7 17 24.1 99.64 25   Rain Showers
20:00 19.7 15.8 78   7 17 24.1 99.60     LegendNANA
21:00 19.6 15.3 76   7 21 24.1 99.63     LegendNANA
22:00 18.4 15.7 84   7 24 24.1 99.59     Cloudy
23:00 17.5 15.5 88   6 15 24.1 99.58     LegendNANA

Notes on Data Quality.

Legend

  • E = Estimated
  • M = Missing
  • NA = Not Available*
  • [empty] = Indicates an unobserved value
Date modified: